Temperature
18 19 20 20 21 21 20 18 18 18 19 19 19 19 20 21 20 20 20 19 19 19 19 19 18 18 18 18 17 17 17 17 17 17 16 16 16 16 16 15 15 15 15 15
19 20 20 20 21 21 21 20 19 19 19 20 20 20 20 20 20 20 20 20 20 19 19 19 18 18 18 18 18 17 17 17 17 17 16 16 16 16 16 15 15 15 15 15
17 18 19 19 20 20 20 20 20 19 19 19 19 19 20 20 20 20 20 20 20 20 19 19 19 18 18 18 18 17 17 17 17 17 16 16 16 16 16 15 15 15 15 15
16 17 18 19 20 20 20 20 20 20 19 20 20 21 21 21 20 20 20 20 20 20 20 19 19 19 18 18 18 17 17 17 17 17 16 16 16 16 16 15 15 15 15 15
15 16 17 19 20 20 20 19 20 19 19 20 21 20 20 21 21 21 21 20 20 20 20 19 19 19 18 18 18 17 17 17 17 17 16 16 16 16 16 15 15 15 15 15
14 16 16 18 20 21 20 18 19 19 19 19 19 17 18 20 21 20 20 20 20 20 20 19 19 19 18 18 18 18 17 17 17 17 16 16 16 16 16 15 15 15 15 15
14 15 16 18 19 20 18 18 20 20 20 20 19 18 20 20 20 20 20 20 20 20 19 19 19 18 18 18 18 18 17 17 17 17 17 16 16 16 16 15 15 15 15 15
14 15 16 18 19 18 18 20 20 20 20 20 20 20 20 20 20 20 20 20 19 19 19 19 18 18 18 18 18 17 17 17 17 17 16 16 16 16 16 15 15 15 15 14
15 15 17 19 19 20 20 20 20 20 20 20 20 19 19 19 19 19 19 19 19 19 19 18 18 18 18 18 17 17 17 17 17 16 16 16 16 16 15 15 15 15 15 14
14 15 17 18 19 19 20 20 20 20 20 20 19 19 19 19 19 18 18 18 18 18 18 18 18 18 18 17 17 17 17 17 16 16 16 16 16 16 15 15 15 15 14 14
14 15 16 17 18 18 19 19 19 19 19 19 19 19 18 18 18 18 18 18 18 18 18 18 18 18 17 17 17 17 17 16 16 16 16 16 16 16 15 15 15 15 14 14
14 15 15 16 17 18 18 18 18 18 18 18 18 18 18 18 18 18 17 17 17 17 17 17 17 17 17 17 17 16 16 16 16 16 16 15 15 15 15 15 14 14 14 14
16 16 17 17 17 17 17 17 17 18 17 17 17 18 18 17 17 17 17 17 17 17 17 17 17 17 17 17 16 16 16 16 16 15 15 15 15 15 15 14 14 14 14 13
16 16 16 16 16 16 16 17 17 17 17 17 17 17 17 17 17 16 16 16 16 16 16 16 16 16 16 16 16 16 16 16 15 15 15 15 15 14 14 14 14 14 13 13
15 16 16 16 16 16 16 16 16 16 16 16 16 16 16 16 16 16 16 16 16 16 16 16 16 16 16 16 15 15 15 15 15 15 15 14 14 14 14 14 13 13 13 13
15 15 15 15 15 15 15 15 15 15 15 15 15 15 16 16 15 15 15 15 15 15 15 15 15 15 15 15 15 15 15 14 14 14 14 14 14 14 13 13 13 13 12 12
14 14 14 14 14 14 15 15 15 15 15 15 15 15 15 15 15 15 15 15 15 15 15 15 15 15 15 15 15 15 14 14 14 14 14 14 13 13 13 13 12 12 12 12
14 14 14 14 14 14 14 14 14 14 14 14 14 14 14 14 14 14 14 14 14 14 14 14 14 14 14 14 14 14 14 14 13 13 13 13 13 13 12 12 12 12 12 11
13 13 13 13 13 13 13 13 13 13 13 13 13 13 13 13 13 13 13 13 13 13 13 14 14 14 14 14 14 13 13 13 13 13 12 12 12 12 12 11 11 11 11 11
12 13 13 13 13 13 13 13 13 13 13 13 13 12 12 12 12 12 12 13 13 13 13 13 13 13 13 13 13 13 13 12 12 12 12 12 11 11 11 11 11 11 11 10
12 12 12 12 12 12 12 12 12 12 12 12 12 12 12 12 12 12 12 12 12 12 12 12 13 13 13 13 12 12 12 12 12 11 11 11 11 11 10 10 10 10 10 10
11 11 11 11 11 11 12 11 11 11 11 11 11 11 11 11 11 11 11 11 12 12 12 12 12 12 12 12 12 12 11 11 11 11 11 11 10 10 10 10 10 9 9 9
11 11 11 11 11 11 11 11 11 11 11 10 10 10 10 10 10 10 10 11 11 11 11 11 11 11 11 11 11 11 11 10 10 10 10 10 10 10 9 9 9 9 9 9
10 10 10 10 10 10 10 10 10 10 10 10 10 10 10 10 10 10 10 10 10 10 10 11 11 11 11 11 10 10 10 10 10 10 10 10 9 9 9 9 8 8 8 8
9 9 10 10 10 10 10 10 9 9 9 9 9 9 9 9 9 9 10 10 10 10 10 10 10 10 10 10 10 10 10 9 9 9 9 9 9 9 9 8 8 8 8 7
9 9 9 9 9 9 9 9 9 9 9 9 9 9 9 9 9 9 9 9 9 9 9 9 9 9 9 9 9 9 9 9 9 9 9 9 8 8 8 8 8 7 7 7
8 8 8 9 9 9 9 9 9 8 8 8 8 8 8 8 8 8 9 9 9 9 9 9 9 9 9 9 8 8 8 8 8 8 8 8 8 8 8 7 7 7 7 6
Wind_Speed
5 5 4 5 6 6 6 8 7 7 7 8 8 8 7 6 7 8 9 9 10 10 9 9 8 8 8 8 8 8 8 8 8 7 6 6 6 6 5 5 5 5 4 3
2 3 2 4 6 6 7 6 6 5 6 7 6 4 5 6 8 8 9 10 11 11 10 10 10 9 9 8 8 8 9 9 7 7 7 7 7 6 5 5 4 4 4 4
3 3 2 5 7 7 5 6 7 7 8 5 4 5 7 8 8 9 9 8 10 11 11 11 11 10 11 9 8 8 8 8 8 8 7 7 7 7 6 6 5 4 4 5
2 0 6 8 5 6 6 4 5 5 6 7 8 7 5 6 8 8 8 9 9 9 9 9 9 9 9 8 8 8 8 8 8 8 8 7 7 7 6 5 5 5 5 5
3 4 6 6 4 4 5 4 4 5 4 4 5 3 1 2 6 8 9 8 8 8 8 8 8 9 9 9 8 8 8 8 9 9 9 8 7 7 6 5 5 5 5 6
4 5 7 7 5 3 5 3 5 4 5 4 5 4 4 4 4 5 6 6 6 5 6 7 7 8 9 9 9 9 9 9 9 9 9 9 8 7 5 5 6 5 5 5
6 6 7 8 5 2 5 7 4 5 6 5 5 6 5 3 3 4 5 5 6 6 6 7 7 8 8 8 9 9 7 7 7 8 9 8 7 6 5 6 5 5 4 4
6 6 8 5 2 5 6 4 3 5 5 5 4 4 3 3 3 3 3 4 5 6 5 5 7 8 8 8 7 6 6 7 7 7 8 7 7 6 6 6 6 5 4 3
7 7 5 3 4 3 4 4 3 4 4 6 5 4 3 3 3 2 2 3 4 5 5 4 5 7 8 7 6 6 6 7 7 7 6 7 8 7 5 6 5 5 5 4
2 4 4 1 0 0 2 3 2 3 4 5 5 5 4 3 2 1 1 2 2 4 4 4 4 5 6 6 7 8 8 7 6 7 6 6 6 6 6 6 6 6 6 5
2 3 1 3 2 1 2 4 4 3 3 5 6 4 4 3 2 2 1 1 2 4 5 5 4 4 4 5 7 7 7 6 6 6 6 6 5 5 6 6 7 8 7 7
5 6 4 4 4 1 2 1 3 4 3 3 4 4 4 3 3 2 1 1 2 2 3 3 4 4 4 5 7 8 6 6 5 5 4 5 4 2 1 3 6 8 8 8
5 4 4 4 3 1 1 1 2 3 3 3 2 4 4 3 2 2 1 1 2 2 3 3 3 3 3 5 6 8 7 7 6 5 5 5 5 5 3 0 0 3 5 8
4 2 2 3 3 2 1 1 2 2 2 3 3 3 3 2 2 2 1 2 2 1 2 3 4 3 3 4 5 6 6 7 7 6 6 5 6 5 5 5 3 1 1 4
5 4 5 4 2 1 1 2 3 2 2 2 2 3 3 3 2 1 1 1 0 0 1 2 3 3 3 4 5 5 5 5 5 5 5 5 5 5 5 5 4 3 1 1
4 3 3 4 4 3 2 3 3 3 2 2 2 2 2 2 1 0 1 0 1 1 2 3 4 4 3 4 5 4 4 6 6 5 5 4 4 5 5 5 5 4 4 3
3 3 3 4 4 4 3 4 4 4 4 3 2 1 2 2 1 1 1 1 1 2 3 3 4 3 3 4 5 4 4 4 6 5 5 5 5 5 6 5 5 5 5 5
6 7 6 6 6 5 3 3 3 4 4 3 2 2 2 2 1 2 2 1 1 2 2 3 3 3 3 3 4 4 4 4 4 4 4 4 4 5 5 5 5 5 3 4
5 5 5 4 5 5 4 4 4 4 3 3 3 2 2 1 2 2 1 1 1 2 4 3 3 3 3 4 3 3 4 4 3 3 3 4 4 4 4 5 5 5 4 4
3 4 4 3 4 4 4 4 4 4 3 4 3 2 0 1 1 2 2 2 3 4 4 3 3 3 4 4 3 3 4 4 4 3 3 4 4 5 5 5 5 4 4 4
2 2 3 4 3 3 4 4 5 4 3 4 4 3 2 2 2 2 2 3 4 3 2 2 2 3 3 3 4 3 3 3 3 3 4 4 4 4 5 5 4 4 4 4
1 2 3 4 4 3 2 3 4 4 4 3 3 2 1 1 2 2 3 3 3 2 1 2 2 3 3 3 3 3 3 3 3 3 3 4 4 5 5 5 4 4 4 4
1 2 2 3 4 4 2 2 3 4 4 4 3 3 3 3 3 3 3 3 2 2 1 2 2 3 4 3 3 3 3 3 3 3 3 3 4 5 5 5 5 4 4 4
1 2 2 2 3 4 3 2 2 3 3 3 4 4 3 2 2 3 2 3 2 2 2 2 3 4 4 3 3 3 3 3 3 3 3 3 3 4 4 4 4 4 4 4
1 2 3 3 3 3 3 3 2 2 2 1 1 2 2 2 3 2 2 2 2 2 2 3 3 4 3 3 3 3 3 3 3 3 3 3 3 3 3 4 4 4 4 4
1 2 2 3 3 3 3 2 2 2 1 1 1 1 1 1 1 1 1 2 2 2 2 2 3 4 3 3 3 3 3 3 3 3 3 3 3 3 3 3 4 4 4 4
0 1 1 1 0 1 2 2 2 2 2 2 2 1 1 1 1 1 1 1 1 2 2 2 3 3 3 3 3 2 2 2 2 2 3 3 3 3 4 4 4 4 4 4
Wind_Direction
233 233 207 218 228 214 194 191 192 217 213 226 216 201 196 182 168 163 173 178 182 186 190 188 186 188 186 188 183 177 174 179 187 186 179 175 175 176 174 172 176 172 164 173
287 264 238 248 237 223 217 206 201 203 234 235 212 185 167 170 167 170 182 188 190 190 189 189 190 191 190 188 183 174 177 186 185 180 176 176 178 175 168 173 174 166 168 176
259 295 357 259 225 208 210 209 192 211 227 210 173 176 185 185 181 183 187 189 191 192 193 194 194 190 189 189 179 174 180 182 179 179 179 181 178 171 173 178 178 178 180 177
204 119 232 246 243 191 188 218 215 203 202 185 179 187 186 179 181 185 184 187 192 193 192 192 189 185 181 176 173 179 183 186 183 180 181 177 171 176 180 177 178 183 188 186
161 209 263 284 256 179 173 235 226 182 190 187 169 125 348 218 185 188 187 185 189 188 185 182 183 180 169 173 174 179 187 190 187 182 180 178 180 183 181 175 181 187 183 181
168 190 225 242 253 207 135 255 265 183 176 164 125 146 238 241 191 178 175 176 174 170 164 171 180 168 167 177 181 191 196 194 189 184 181 184 188 186 180 176 184 182 185 191
188 214 251 256 266 116 159 228 241 172 163 149 161 192 211 190 167 163 159 162 158 153 163 180 172 161 169 180 196 200 190 184 184 184 185 184 182 179 172 171 170 175 183 198
182 205 241 257 166 174 207 211 185 158 153 143 151 143 121 122 140 144 146 150 149 150 162 175 170 165 176 193 199 186 176 176 182 184 186 182 173 177 174 168 169 178 181 201
192 215 241 233 196 211 170 159 178 158 158 144 135 134 130 125 123 136 141 155 159 155 160 169 174 173 185 198 182 172 169 180 185 185 187 177 176 179 177 176 178 188 187 200
204 255 255 273 35 68 151 138 148 144 144 135 135 142 132 125 120 118 146 139 152 152 160 180 187 186 192 190 175 169 173 179 182 181 185 182 181 181 182 188 190 194 197 203
217 259 329 332 350 34 65 83 86 86 112 132 128 129 138 139 141 145 153 167 149 167 178 195 196 197 197 182 172 171 173 175 176 179 179 179 182 188 192 201 197 196 202 198
215 219 192 236 263 246 88 106 108 88 73 102 131 141 141 151 157 157 165 169 145 166 182 194 189 196 198 182 172 168 171 174 176 175 175 173 168 157 171 203 214 207 202 196
214 235 222 223 234 218 154 194 148 125 138 140 144 150 147 146 149 142 140 154 175 194 196 188 179 188 195 182 172 174 179 180 177 175 175 176 174 173 177 349 131 189 199 197
229 214 256 248 239 236 196 174 117 102 129 146 139 137 135 118 109 119 189 222 210 193 195 184 180 196 201 182 176 178 179 180 177 180 181 184 185 184 181 180 190 227 243 200
254 225 212 219 223 230 184 127 104 114 116 107 113 127 127 126 143 221 258 249 147 143 215 191 189 213 207 181 174 175 175 180 178 176 179 182 181 177 180 185 186 181 163 203
250 248 198 186 198 217 195 151 148 162 153 137 123 126 136 141 162 251 336 79 154 222 236 209 208 220 200 178 174 175 178 178 172 171 173 176 179 181 185 187 185 186 195 197
200 229 219 202 209 216 201 185 176 174 166 164 179 161 124 99 74 349 312 276 222 233 227 213 215 205 182 177 175 177 173 175 171 169 182 187 188 191 191 190 193 199 208 202
205 213 211 205 208 197 190 186 173 164 166 175 156 130 126 141 210 252 261 273 344 344 304 241 212 187 183 185 179 173 171 174 179 183 189 193 198 195 190 190 194 198 200 192
207 206 207 200 201 189 184 184 179 169 158 144 137 152 178 203 223 249 253 187 215 281 281 258 213 182 187 189 173 171 171 173 178 186 188 191 194 192 191 193 196 196 189 182
194 185 188 195 198 185 183 181 170 160 157 153 145 138 158 278 257 249 237 236 241 246 242 227 195 191 189 185 164 168 171 177 183 191 187 190 198 199 197 197 195 191 189 189
185 183 177 181 184 189 182 174 166 163 164 164 165 181 209 247 248 230 225 263 281 278 230 203 194 201 191 176 160 168 175 182 188 194 198 201 204 199 196 196 196 194 195 197
186 168 172 171 166 175 188 176 170 166 168 177 182 186 197 243 252 252 242 242 251 246 203 201 203 192 181 160 166 173 181 188 195 195 202 204 202 197 197 198 201 203 202 200
193 162 153 163 169 168 157 153 159 164 172 182 189 194 209 229 223 223 259 269 230 219 197 198 202 175 162 159 168 174 180 188 196 201 208 210 203 197 197 198 202 202 200 197
186 158 168 166 143 134 143 185 180 180 182 187 196 202 202 218 263 262 251 253 244 214 202 196 179 171 159 169 173 177 187 198 201 204 211 213 200 196 196 194 196 198 196 191
173 157 156 146 148 168 184 182 166 167 173 191 215 226 220 214 225 245 250 224 218 213 216 199 189 181 174 177 183 188 197 207 205 203 210 204 198 195 196 191 189 190 189 192
198 173 170 175 179 185 180 166 172 186 181 200 285 283 292 293 239 222 228 232 213 218 220 201 194 188 187 186 192 192 194 204 199 206 206 195 188 188 190 187 184 188 187 186
94 133 144 136 158 177 175 171 177 199 201 197 229 259 255 250 230 220 221 233 224 226 228 214 201 197 192 189 191 191 195 197 196 203 194 185 183 186 188 184 183 181 174 172
Height
1509 1504 1504 1504 1504 1504 1508 1514 1521 1517 1513 1507 1503 1502 1502 1502 1504 1505 1507 1509 1511 1514 1516 1518 1521 1523 1526 1528 1530 1532 1534 1536 1538 1540 1542 1544 1545 1546 1548 1549 1550 1551 1552 1553
1508 1503 1502 1503 1501 1501 1502 1504 1508 1508 1507 1499 1498 1499 1500 1501 1502 1504 1505 1507 1509 1511 1514 1516 1518 1521 1523 1525 1528 1530 1532 1534 1536 1538 1540 1541 1543 1545 1546 1547 1549 1550 1551 1552
1517 1507 1506 1510 1499 1498 1499 1498 1501 1506 1502 1497 1498 1498 1499 1499 1501 1502 1503 1505 1507 1509 1511 1513 1515 1518 1520 1523 1525 1527 1529 1531 1533 1536 1537 1539 1541 1543 1544 1546 1547 1548 1549 1550
1518 1515 1521 1503 1489 1489 1492 1494 1493 1493 1493 1493 1494 1495 1496 1497 1498 1499 1501 1503 1505 1506 1508 1511 1513 1516 1518 1521 1523 1525 1527 1529 1531 1533 1535 1537 1539 1540 1542 1544 1545 1546 1548 1549
1520 1520 1511 1497 1488 1488 1491 1495 1490 1490 1491 1491 1492 1493 1495 1496 1497 1498 1499 1501 1503 1504 1507 1509 1511 1514 1516 1519 1521 1523 1525 1527 1529 1531 1532 1534 1536 1538 1539 1541 1543 1544 1545 1547
1516 1518 1516 1497 1484 1482 1488 1496 1488 1487 1488 1489 1490 1498 1496 1495 1495 1497 1498 1499 1501 1503 1505 1507 1509 1512 1514 1516 1518 1520 1522 1524 1526 1528 1530 1532 1533 1535 1537 1538 1540 1542 1543 1544
1511 1513 1504 1488 1482 1482 1499 1496 1485 1484 1485 1487 1489 1492 1492 1493 1494 1495 1496 1498 1499 1501 1503 1505 1507 1510 1511 1513 1515 1517 1519 1521 1523 1525 1527 1529 1531 1533 1534 1536 1537 1538 1540 1541
1507 1510 1503 1482 1482 1486 1486 1482 1482 1483 1484 1485 1487 1489 1490 1491 1492 1494 1495 1496 1498 1499 1501 1503 1506 1507 1509 1511 1513 1515 1517 1519 1520 1523 1525 1527 1528 1530 1531 1533 1534 1535 1537 1538
1493 1493 1482 1479 1479 1479 1479 1480 1481 1481 1483 1484 1485 1487 1489 1490 1491 1493 1494 1495 1496 1498 1499 1502 1504 1505 1507 1508 1511 1512 1514 1516 1518 1520 1522 1523 1525 1527 1528 1530 1531 1532 1533 1534
1486 1482 1479 1478 1478 1478 1478 1479 1479 1480 1481 1482 1484 1486 1487 1489 1490 1491 1492 1494 1495 1496 1497 1499 1501 1503 1504 1506 1508 1509 1511 1513 1514 1516 1518 1520 1522 1523 1525 1526 1527 1528 1529 1530
1484 1480 1479 1478 1477 1478 1478 1478 1479 1479 1480 1481 1482 1484 1486 1487 1489 1490 1491 1492 1493 1494 1495 1496 1498 1500 1501 1503 1505 1506 1508 1509 1511 1513 1514 1516 1518 1519 1521 1522 1524 1525 1526 1527
1481 1478 1478 1477 1477 1477 1477 1478 1478 1478 1479 1480 1481 1482 1484 1485 1487 1488 1489 1490 1491 1492 1493 1494 1495 1497 1498 1500 1501 1503 1504 1506 1508 1509 1511 1512 1514 1516 1517 1519 1520 1522 1523 1523
1474 1474 1474 1474 1475 1476 1476 1476 1476 1477 1478 1479 1480 1481 1482 1483 1485 1486 1487 1487 1488 1489 1490 1492 1493 1494 1495 1497 1498 1500 1501 1502 1504 1506 1507 1508 1510 1511 1513 1514 1516 1517 1518 1519
1471 1471 1471 1472 1472 1473 1474 1475 1475 1475 1476 1477 1478 1479 1480 1481 1482 1483 1484 1485 1486 1487 1488 1489 1490 1491 1492 1494 1495 1496 1498 1499 1501 1502 1504 1505 1506 1508 1509 1510 1511 1512 1513 1515
1468 1468 1468 1469 1470 1471 1471 1472 1473 1473 1474 1475 1476 1476 1477 1479 1480 1481 1482 1482 1483 1484 1485 1486 1487 1488 1489 1490 1492 1493 1494 1496 1497 1499 1500 1501 1502 1504 1505 1506 1507 1508 1509 1510
1464 1464 1465 1465 1466 1467 1468 1469 1470 1471 1472 1473 1474 1474 1475 1476 1477 1478 1479 1480 1480 1480 1481 1482 1483 1484 1486 1487 1488 1490 1491 1492 1494 1495 1496 1497 1498 1499 1500 1501 1502 1503 1504 1505
1460 1460 1461 1462 1463 1464 1465 1466 1467 1468 1469 1470 1471 1472 1473 1473 1474 1475 1476 1477 1477 1477 1478 1479 1480 1481 1482 1484 1485 1486 1487 1489 1490 1491 1492 1493 1494 1495 1496 1497 1497 1498 1499 1501
1455 1456 1457 1459 1460 1461 1462 1463 1464 1465 1467 1468 1469 1470 1470 1471 1471 1472 1473 1473 1474 1474 1475 1476 1477 1478 1479 1480 1482 1483 1484 1485 1486 1487 1488 1489 1490 1490 1491 1492 1493 1494 1495 1496
1451 1453 1454 1455 1456 1457 1458 1460 1461 1463 1464 1465 1466 1467 1467 1468 1468 1469 1469 1470 1470 1470 1471 1472 1473 1474 1475 1477 1478 1479 1480 1481 1482 1483 1484 1484 1485 1486 1487 1488 1488 1489 1490 1491
1447 1449 1450 1451 1452 1454 1455 1456 1458 1459 1461 1462 1463 1464 1464 1465 1465 1466 1466 1466 1466 1467 1467 1468 1469 1470 1471 1473 1474 1475 1476 1477 1478 1479 1480 1480 1481 1482 1483 1483 1484 1485 1486 1487
1444 1444 1445 1447 1448 1450 1451 1453 1454 1456 1457 1459 1460 1460 1461 1461 1462 1462 1462 1462 1463 1464 1464 1465 1465 1466 1467 1468 1470 1471 1472 1473 1474 1475 1476 1476 1477 1477 1478 1479 1480 1480 1481 1482
1441 1441 1442 1443 1445 1446 1448 1450 1451 1453 1454 1455 1456 1457 1458 1458 1458 1459 1459 1460 1460 1460 1461 1461 1461 1462 1463 1465 1466 1467 1468 1469 1470 1471 1471 1472 1472 1473 1474 1475 1475 1476 1477 1477
1438 1439 1440 1441 1441 1443 1445 1447 1448 1449 1451 1452 1453 1453 1454 1455 1455 1455 1455 1456 1456 1457 1457 1457 1458 1459 1460 1461 1462 1463 1464 1465 1465 1466 1467 1468 1468 1469 1469 1470 1471 1471 1472 1472
1437 1437 1438 1439 1440 1441 1442 1444 1445 1446 1447 1449 1450 1450 1451 1451 1451 1451 1452 1452 1452 1453 1453 1454 1454 1455 1456 1457 1458 1459 1460 1461 1461 1462 1462 1463 1464 1464 1465 1465 1466 1467 1467 1468
1435 1436 1437 1437 1438 1439 1440 1441 1443 1444 1445 1445 1446 1447 1447 1447 1447 1447 1448 1448 1448 1449 1449 1450 1451 1452 1452 1453 1454 1455 1456 1457 1457 1458 1458 1459 1459 1460 1460 1461 1461 1462 1462 1463
1433 1434 1435 1436 1436 1437 1438 1439 1439 1440 1441 1441 1442 1442 1443 1443 1444 1444 1444 1444 1445 1445 1446 1446 1447 1448 1449 1449 1450 1451 1452 1452 1453 1453 1454 1454 1455 1456 1456 1456 1457 1457 1458 1459
1431 1431 1432 1433 1434 1435 1435 1436 1436 1437 1437 1438 1438 1439 1440 1440 1440 1440 1440 1440 1441 1441 1442 1442 1443 1444 1445 1446 1447 1447 1448 1448 1449 1449 1450 1450 1451 1452 1452 1452 1453 1453 1454 1455